Regional Weather Roundup
Issued by NWS Jackson, KY

Home | Current Version | Previous Version | Graphics & Text | Print | Product List | Glossary On
Versions: 1 2 3 4 5 6 7 8 9 10 11 12 13 14 15 16 17 18 19 20 21 22 23 24 25 26 27 28 29 30 31 32 33 34 35 36 37 38 39 40 41 42 43 44 45 46 47 48 49 50
000
ASUS43 KJKL 092310
RWRJKL

EAST KENTUCKY HOURLY WEATHER ROUNDUP
NATIONAL WEATHER SERVICE JACKSON KY
600 PM EST FRI DEC 09 2016

NOTE: "FAIR" INDICATES FEW OR NO CLOUDS BELOW 12,000 FEET WITH
NO SIGNIFICANT WEATHER AND/OR OBSTRUCTIONS TO VISIBILITY.

* THESE REPORTS ARE NOT UNDER NWS QUALITY CONTROL AND MAY NOT
  REPORT WEATHER SUCH AS PRECIPITATION AND FOG.

KYZ079-080-083-085-087-088-110-112-115-119-120-100000
...EASTERN KENTUCKY...

CITY           SKY/WX    TMP DP  RH WIND       PRES   REMARKS
JACKSON        CLOUDY    24  13  62 VRB5      30.50R WCI  18
LONDON         CLEAR     24  13  62 N6        30.50S WCI  17
SOMERSET*      CLOUDY    27  14  59 CALM      30.54S
MONTICELLO*    CLEAR     25  16  68 N10       30.54S WCI  15
MIDDLESBORO*   CLEAR     27  16  62 CALM      30.50S
HARLAN APT*    CLEAR     28  14  54 CALM      30.46S
PIKE CO APT*   CLOUDY    24  15  69 W5        30.48S WCI  18
BIG SANDY APT* CLOUDY    24  15  66 NW5       30.51S WCI  18
MOREHEAD APT*  CLOUDY    23  10  58 W5        30.56R WCI  17
ASHLAND*       CLOUDY    27  12  54 W9        30.54S WCI  17
$$

KYZ035-036-041-042-044-050-067-078-099-100000
...CENTRAL KENTUCKY...

CITY           SKY/WX    TMP DP  RH WIND       PRES   REMARKS
MT STERLING*   CLOUDY    25  14  63 NW3       30.55S
FLEMING/MASON* CLOUDY    23  13  65 W7        30.55R WCI  14
DANVILLE*      CLOUDY    25  16  68 NW3       30.54S
LEXINGTON      CLOUDY    24  13  62 NW5       30.54S WCI  18
FRANKFORT      CLOUDY    25  12  58 NW5       30.55S WCI  19
LOUISVILLE     CLOUDY    26  12  55 W12       30.58R WCI  16
LEBANON*         N/A     25  14  63 CALM      30.55S
GLASGOW*       CLEAR     28  18  66 CALM      30.55R
BOWLING GREEN  CLEAR     30  15  53 NW9       30.57R WCI  22
$$

KYZ091>093-OHZ055-061-077-WVZ005-015-034-035-042-100000
...SOUTHERN OHIO/WEST VIRGINIA...

CITY           SKY/WX    TMP DP  RH WIND       PRES   REMARKS
COVINGTON      CLOUDY    24  13  62 SW7       30.53R WCI  16
COLUMBUS       FLURRIES  26  19  74 W13       30.48R WCI  15
DAYTON         FLURRIES  24  17  74 W8        30.49S WCI  15
WILMINGTON     CLOUDY    24  15  68 SW9       30.48F WCI  14
HUNTINGTON     CLOUDY    25  13  60 SW7       30.53R WCI  17
CHARLESTON     FLURRIES  25  13  60 NW8       30.50S WCI  16
PINEVILLE*       N/A     25  11  56 MISG      30.49S
BECKLEY        CLOUDY    20  11  68 W6        30.39R WCI  12
BLUEFIELD      MOCLDY    17   8  67 NW6       30.37S WCI   9
LOGAN CO APT*  CLOUDY    23  14  68 CALM      30.46S
$$

VAZ002-007-008-TNZ017-027-036-066-071-100000
...SOUTHWEST VIRGINIA/EAST TENNESSEE...

CITY           SKY/WX    TMP DP  RH WIND       PRES   REMARKS
WISE*          CLEAR     21  14  73 N3        30.40S
ABINGDON*      CLEAR     26  14  60 CALM      30.41S
BRISTOL        CLEAR     27  13  55 SW5       30.45S WCI  22
MORRISTOWN*    PTCLDY    30  16  55 NW3       30.46S
SEVIERVILLE*   CLEAR     28  14  54 NW3       30.48F
KNOXVILLE      CLEAR     32  15  49 CALM      30.49R
OAK RIDGE      CLEAR     31  17  56 CALM      30.50S
CROSSVILLE     CLEAR     27  14  58 NW5       30.46R WCI  22
NASHVILLE      CLEAR     32  15  49 N9        30.55S WCI  24
$$

...KEY TO REMARKS...
VSB - VISIBILITY IN MILES
WCI - WIND CHILL INDEX
HX  - HEAT INDEX

$$



USA.gov is the U.S. government's official web portal to all federal, state and local government web resources and services.